Regional Weather Roundup
Issued by NWS

Home | Current Version | Previous Version | Text Only | Print | Product List | Glossary Off
Versions: 1 2 3 4 5 6 7 8 9 10 11 12 13 14 15 16 17 18 19 20 21 22 23 24 25 26 27 28 29 30 31 32 33 34 35 36 37 38 39 40 41 42 43 44 45 46 47 48 49 50

000
ASUS43 KLOT 011606
RWRIL

ILLINOIS REGIONAL WEATHER ROUNDUP
NATIONAL WEATHER SERVICE CHICAGO/ROMEOVILLE IL
1100 AM CDT FRI AUG 01 2014

NOTE: "FAIR" INDICATES FEW OR NO CLOUDS BELOW 12,000 FEET WITH NO
SIGNIFICANT WEATHER AND/OR OBSTRUCTIONS TO VISIBILITY.

* THESE STATIONS ARE NOT UNDER NWS QUALITY CONTROL. THEY ALSO MAY NOT
  REPORT WEATHER SUCH AS PRECIPITATION OR FOG.

ILZ001-002-007-009-015-016-024-011700-
NORTHWEST ILLINOIS

CITY           SKY/WX    TMP DP  RH WIND       PRES   REMARKS
MOLINE         SUNNY     77  62  59 SW7       30.09S
STERLING*      MOSUNNY   77  63  61 SW5       30.11S
SAVANNA*       SUNNY     79  59  50 W6        30.09F HX  80
$$

ILZ003-004-008-010-011-017-018-011700-
NORTH CENTRAL ILLINOIS

CITY           SKY/WX    TMP DP  RH WIND       PRES   REMARKS
ROCKFORD       MOSUNNY   76  59  55 VRB5      30.11S
FREEPORT*      SUNNY     78  69  73 W3        30.12F HX  80
ROCHELLE*      MOSUNNY   77  60  55 W5        30.11S
DE KALB*       MOSUNNY   74  62  65 W10       30.12S
PERU*          CLOUDY    70  63  79 W8        30.11F
$$

ILZ005-006-012>014-019>023-011700-
NORTHEAST ILLINOIS

CITY           SKY/WX    TMP DP  RH WIND       PRES   REMARKS
CHICAGO-OHARE  PTSUNNY   79  56  45 CALM      30.09R HX  80
CHICAGO-MIDWAY PTSUNNY   82  58  43 SW7       30.09S HX  82
AURORA         PTSUNNY   77  59  53 W10       30.11R
LANSING*       MOSUNNY   77  63  60 SW6       30.11S
JOLIET*        MOSUNNY   78  60  54 S6        30.11S
WAUKEGAN       SUNNY     78  61  55 VRB7      30.09R HX  80
DUPAGE AIRPORT MOSUNNY   78  59  51 SW7       30.10R
KANKAKEE*      MOSUNNY   78  64  62 CALM      30.12S
WHEELING       MOSUNNY   81  59  47 W3        30.10S HX  81
MORRIS*        MOSUNNY   78  64  62 SW3       30.10S HX  80
ROMEOVILLE*    MOSUNNY   77  62  59 W3        30.10S
NORTHERLY ISL    N/A     79  53  40 NW5         N/A
$$

LMZ740>746-011700-
SOUTHERN LAKE MICHIGAN

STATION/POSITION SKY/WX   TEMP    WIND        PRES    VSBY  WAVE
                          AIR SEA DIR/SP/G                  HT/PER
                          (F)     (DEG/KT/KT) (MB)    (MI)  (FT/S)
SOUTHERN BUOY              65 63  240/  8/  8 1019.2R         0
WAUKEGAN HARBOR            76     250/  6/  8   N/A
HARRISON CRIB              74     150/  6/  8   N/A
BURNHAM HARBOR             79     210/  4/  9   N/A
CALUMET HARBOR             76     170/  4/  6 1018.0R
MICHIGAN CITY              73     310/  5/  6   N/A
MICHIGAN CITY 6N           71 70  280/  4/  4   N/A           0
ST. JOSEPH                 69 69  170/  4/  6   N/A           1
$$

ILZ025>027-034>036-040-047-049-050-058-095>099-011700-
WEST-CENTRAL ILLINOIS

CITY           SKY/WX    TMP DP  RH WIND       PRES   REMARKS
QUINCY         PTSUNNY   76  64  66 NE9       30.10R
GALESBURG*     CLOUDY    80  64  57 CALM      30.11R HX  82
MACOMB*        CLOUDY    71  63  74 W3        30.13S
JACKSONVILLE*  PTSUNNY   77  69  74 CALM      30.10S
PITTSFIELD*    MOSUNNY   77  66  70 CALM      30.11S
$$

ILZ028>032-037-038-041>044-048-051>054-059>061-011700-
CENTRAL ILLINOIS

CITY           SKY/WX    TMP DP  RH WIND       PRES   REMARKS
PONTIAC          N/A     77  63  61 CALM      30.11S
DECATUR        SUNNY     80  64  58 CALM      30.11R HX  82
PEORIA         MOSUNNY   80  63  55 N6        30.10S HX  81
LACON*         PTSUNNY   74  61  63 NE3       30.10S
LINCOLN*       SUNNY     81  64  55 NE3       30.07S HX  82
SPRINGFIELD    PTSUNNY   80  66  62 CALM      30.10R HX  82
TAYLORVILLE    MOSUNNY   77  64  65 S3        30.10S
$$

ILZ033-039-045-046-055>057-062-063-011700-
EAST-CENTRAL ILLINOIS

CITY           SKY/WX    TMP DP  RH WIND       PRES   REMARKS
CHAMPAIGN      SUNNY     78  64  61 CALM      30.11S HX  80
DANVILLE*      PTSUNNY   76  66  71 S8        30.09S
RANTOUL*       SUNNY     79  61  54 CALM      30.12S HX  81
MATTOON        MOSUNNY   79  65  62 S3        30.10S HX  81
PARIS*         PTSUNNY   78  67  68 N3        30.12S HX  80
$$

ILZ079-100>102-011700-
SOUTHWEST ILLINOIS

CITY           SKY/WX    TMP DP  RH WIND       PRES   REMARKS
ALTON          MOSUNNY   79  68  69 CALM      30.10R HX  81
BELLEVILLE     SUNNY     80  67  65 CALM      30.09S HX  82
CAHOKIA*       SUNNY     80  64  58 VRB3      30.09S HX  82
SPARTA*        PTSUNNY   75  66  73 W3        30.11S
$$

ILZ064>066-069>071-074>076-080>082-084>086-088>090-092>094-011700-
SOUTH-CENTRAL ILLINOIS

CITY           SKY/WX    TMP DP  RH WIND       PRES   REMARKS
CARBONDALE     SUNNY     78  64  61 NW3       30.10R HX  80
CAIRO*         SUNNY     81  65  57 CALM      30.10S HX  83
EFFINGHAM*     SUNNY     79  59  49 CALM      30.11S HX  80
MARION         MOSUNNY   81  63  54 NW5       30.11R HX  82
MT. VERNON     SUNNY     81  66  61 S3        30.11S HX  83
CENTRALIA*     SUNNY     92  62  37 CALM      30.10S HX  92
SALEM*         SUNNY     81  66  60 CALM      30.10F HX  83
METROPOLIS*    PTSUNNY   81  58  46 NE5       30.08F HX  81
$$

ILZ067-068-072-073-078-083-087-091-011700-
SOUTHEAST ILLINOIS

CITY           SKY/WX    TMP DP  RH WIND       PRES   REMARKS
LAWRENCEVILLE  SUNNY     81  64  56 SE5       30.11S HX  82
FLORA*         SUNNY     79  62  56 SW3       30.11S HX  80
FAIRFIELD*     SUNNY     81  70  69 CALM      30.10S HX  84
HARRISBURG*    SUNNY     77  68  72 CALM      30.11S
ROBINSON*      SUNNY     82  65  56 E3        30.11F HX  84
CARMI*         SUNNY     81  70  69 CALM      30.10S HX  84
$$

ABBREVIATIONS USED IN REMARKS
   TC - TEMPERATURE IN CELSIUS
  WCI - WIND CHILL INDEX
   HX - HEAT INDEX
  VSB - VISIBILITY
$$



USA.gov is the U.S. government's official web portal to all federal, state and local government web resources and services.